Year,Month,Day,Hour,Minute,Value (Times are PST for temperature in C)
2010,08,29,00,00,12.50
2010,08,29,00,01,12.50
2010,08,29,00,02,12.50
2010,08,29,00,03,12.50
2010,08,29,00,04,12.50
2010,08,29,00,05,12.50
2010,08,29,00,06,12.50
2010,08,29,00,07,12.60
2010,08,29,00,08,12.60
2010,08,29,00,09,12.60
2010,08,29,00,10,12.60
2010,08,29,00,11,12.60
2010,08,29,00,12,12.60
2010,08,29,00,13,12.60
2010,08,29,00,14,12.60
2010,08,29,00,15,12.60
2010,08,29,00,16,12.50
2010,08,29,00,17,12.50
2010,08,29,00,18,12.50
2010,08,29,00,19,12.50
2010,08,29,00,20,12.40
2010,08,29,00,21,12.40
2010,08,29,00,22,12.40
2010,08,29,00,23,12.40
2010,08,29,00,24,12.40
2010,08,29,00,25,12.30
2010,08,29,00,26,12.30
2010,08,29,00,27,12.30
2010,08,29,00,28,12.30
2010,08,29,00,29,12.30
2010,08,29,00,30,12.20
2010,08,29,00,31,12.20
2010,08,29,00,32,12.20
2010,08,29,00,33,12.20
2010,08,29,00,34,12.20
2010,08,29,00,35,12.10
2010,08,29,00,36,12.10
2010,08,29,00,37,12.10
2010,08,29,00,38,12.10
2010,08,29,00,39,12.00
2010,08,29,00,40,12.00
2010,08,29,00,41,11.90
2010,08,29,00,42,11.90
2010,08,29,00,43,11.90
2010,08,29,00,44,11.90
2010,08,29,00,45,11.80
2010,08,29,00,46,11.80
2010,08,29,00,47,11.80
2010,08,29,00,48,11.80
2010,08,29,00,49,11.70
2010,08,29,00,50,11.70
2010,08,29,00,51,11.70
2010,08,29,00,52,11.70
2010,08,29,00,53,11.60
2010,08,29,00,54,11.60
2010,08,29,00,55,11.60
2010,08,29,00,56,11.60
2010,08,29,00,57,11.60
2010,08,29,00,58,11.50
2010,08,29,00,59,11.50
2010,08,29,01,00,11.50
2010,08,29,01,01,11.50
2010,08,29,01,02,11.40
2010,08,29,01,03,11.40
2010,08,29,01,04,11.40
2010,08,29,01,05,11.40
2010,08,29,01,06,11.40
2010,08,29,01,07,11.30
2010,08,29,01,08,11.30
2010,08,29,01,09,11.30
2010,08,29,01,10,11.30
2010,08,29,01,11,11.20
2010,08,29,01,12,11.20
2010,08,29,01,13,11.20
2010,08,29,01,14,11.20
2010,08,29,01,15,11.20
2010,08,29,01,16,11.20
2010,08,29,01,17,11.20
2010,08,29,01,18,11.20
2010,08,29,01,19,11.10
2010,08,29,01,20,11.10
2010,08,29,01,21,11.10
2010,08,29,01,22,11.10
2010,08,29,01,23,11.00
2010,08,29,01,24,11.00
2010,08,29,01,25,11.00
2010,08,29,01,26,10.90
2010,08,29,01,27,10.90
2010,08,29,01,28,10.90
2010,08,29,01,29,10.90
2010,08,29,01,30,10.80
2010,08,29,01,31,10.80
2010,08,29,01,32,10.80
2010,08,29,01,33,10.80
2010,08,29,01,34,10.70
2010,08,29,01,35,10.70
2010,08,29,01,36,10.70
2010,08,29,01,37,10.70
2010,08,29,01,38,10.70
2010,08,29,01,39,10.70
2010,08,29,01,40,10.70
2010,08,29,01,41,10.70
2010,08,29,01,42,10.70
2010,08,29,01,43,10.70
2010,08,29,01,44,10.70
2010,08,29,01,45,10.70
2010,08,29,01,46,10.70
2010,08,29,01,47,10.70
2010,08,29,01,48,10.70
2010,08,29,01,49,10.70
2010,08,29,01,50,10.70
2010,08,29,01,51,10.70
2010,08,29,01,52,10.70
2010,08,29,01,53,10.70
2010,08,29,01,54,10.70
2010,08,29,01,55,10.70
2010,08,29,01,56,10.70
2010,08,29,01,57,10.70
2010,08,29,01,58,10.70
2010,08,29,01,59,10.70
2010,08,29,02,00,10.70
2010,08,29,02,01,10.70
2010,08,29,02,02,10.70
2010,08,29,02,03,10.70
2010,08,29,02,04,10.70
2010,08,29,02,05,10.70
2010,08,29,02,06,10.70
2010,08,29,02,07,10.70
2010,08,29,02,08,10.70
2010,08,29,02,09,10.70
2010,08,29,02,10,10.70
2010,08,29,02,11,10.60
2010,08,29,02,12,10.60
2010,08,29,02,13,10.60
2010,08,29,02,14,10.70
2010,08,29,02,15,10.70
2010,08,29,02,16,10.70
2010,08,29,02,17,10.70
2010,08,29,02,18,10.70
2010,08,29,02,19,10.60
2010,08,29,02,20,10.60
2010,08,29,02,21,10.60
2010,08,29,02,22,10.60
2010,08,29,02,23,10.60
2010,08,29,02,24,10.60
2010,08,29,02,25,10.60
2010,08,29,02,26,10.60
2010,08,29,02,27,10.60
2010,08,29,02,28,10.50
2010,08,29,02,29,10.50
2010,08,29,02,30,10.50
2010,08,29,02,31,10.50
2010,08,29,02,32,10.40
2010,08,29,02,33,10.40
2010,08,29,02,34,10.40
2010,08,29,02,35,10.40
2010,08,29,02,36,10.40
2010,08,29,02,37,10.40
2010,08,29,02,38,10.40
2010,08,29,02,39,10.30
2010,08,29,02,40,10.30
2010,08,29,02,41,10.30
2010,08,29,02,42,10.30
2010,08,29,02,43,10.30
2010,08,29,02,44,10.30
2010,08,29,02,45,10.30
2010,08,29,02,46,10.30
2010,08,29,02,47,10.20
2010,08,29,02,48,10.20
2010,08,29,02,49,10.20
2010,08,29,02,50,10.20
2010,08,29,02,51,10.20
2010,08,29,02,52,10.10
2010,08,29,02,53,10.10
2010,08,29,02,54,10.10
2010,08,29,02,55,10.10
2010,08,29,02,56,10.00
2010,08,29,02,57,10.00
2010,08,29,02,58,9.90
2010,08,29,02,59,9.90
2010,08,29,03,00,9.90
2010,08,29,03,01,9.90
2010,08,29,03,02,9.90
2010,08,29,03,03,9.90
2010,08,29,03,04,9.80
2010,08,29,03,05,9.80
2010,08,29,03,06,9.80
2010,08,29,03,07,9.80
2010,08,29,03,08,9.80
2010,08,29,03,09,9.80
2010,08,29,03,10,9.80
2010,08,29,03,11,9.80
2010,08,29,03,12,9.80
2010,08,29,03,13,9.80
2010,08,29,03,14,9.80
2010,08,29,03,15,9.80
2010,08,29,03,16,9.80
2010,08,29,03,17,9.70
2010,08,29,03,18,9.70
2010,08,29,03,19,9.70
2010,08,29,03,20,9.70
2010,08,29,03,21,9.70
2010,08,29,03,22,9.70
2010,08,29,03,23,9.70
2010,08,29,03,24,9.70
2010,08,29,03,25,9.70
2010,08,29,03,26,9.70
2010,08,29,03,27,9.70
2010,08,29,03,28,9.70
2010,08,29,03,29,9.60
2010,08,29,03,30,9.60
2010,08,29,03,31,9.60
2010,08,29,03,32,9.60
2010,08,29,03,33,9.60
2010,08,29,03,34,9.60
2010,08,29,03,35,9.60
2010,08,29,03,36,9.60
2010,08,29,03,37,9.60
2010,08,29,03,38,9.60
2010,08,29,03,39,9.50
2010,08,29,03,40,9.50
2010,08,29,03,41,9.50
2010,08,29,03,42,9.50
2010,08,29,03,43,9.50
2010,08,29,03,44,9.50
2010,08,29,03,45,9.50
2010,08,29,03,46,9.50
2010,08,29,03,47,9.40
2010,08,29,03,48,9.40
2010,08,29,03,49,9.40
2010,08,29,03,50,9.40
2010,08,29,03,51,9.40
2010,08,29,03,52,9.40
2010,08,29,03,53,9.40
2010,08,29,03,54,9.40
2010,08,29,03,55,9.30
2010,08,29,03,56,9.30
2010,08,29,03,57,9.30
2010,08,29,03,58,9.30
2010,08,29,03,59,9.30
2010,08,29,04,00,9.30
2010,08,29,04,01,9.30
2010,08,29,04,02,9.30
2010,08,29,04,03,9.30
2010,08,29,04,04,9.30
2010,08,29,04,05,9.30
2010,08,29,04,06,9.30
2010,08,29,04,07,9.20
2010,08,29,04,08,9.20
2010,08,29,04,09,9.20
2010,08,29,04,10,9.20
2010,08,29,04,11,9.20
2010,08,29,04,12,9.20
2010,08,29,04,13,9.20
2010,08,29,04,14,9.20
2010,08,29,04,15,9.20
2010,08,29,04,16,9.20
2010,08,29,04,17,9.20
2010,08,29,04,18,9.20
2010,08,29,04,19,9.10
2010,08,29,04,20,9.10
2010,08,29,04,21,9.10
2010,08,29,04,22,9.10
2010,08,29,04,23,9.10
2010,08,29,04,24,9.10
2010,08,29,04,25,9.10
2010,08,29,04,26,9.10
2010,08,29,04,27,9.10
2010,08,29,04,28,9.10
2010,08,29,04,29,9.10
2010,08,29,04,30,9.10
2010,08,29,04,31,9.10
2010,08,29,04,32,9.10
2010,08,29,04,33,9.10
2010,08,29,04,34,9.10
2010,08,29,04,35,9.10
2010,08,29,04,36,9.10
2010,08,29,04,37,9.10
2010,08,29,04,38,9.20
2010,08,29,04,39,9.20
2010,08,29,04,40,9.20
2010,08,29,04,41,9.20
2010,08,29,04,42,9.20
2010,08,29,04,43,9.20
2010,08,29,04,44,9.20
2010,08,29,04,45,9.20
2010,08,29,04,46,9.20
2010,08,29,04,47,9.20
2010,08,29,04,48,9.20
2010,08,29,04,49,9.20
2010,08,29,04,50,9.20
2010,08,29,04,51,9.20
2010,08,29,04,52,9.20
2010,08,29,04,53,9.20
2010,08,29,04,54,9.20
2010,08,29,04,55,9.20
2010,08,29,04,56,9.20
2010,08,29,04,57,9.10
2010,08,29,04,58,9.10
2010,08,29,04,59,9.10
2010,08,29,05,00,9.10
2010,08,29,05,01,9.10
2010,08,29,05,02,9.10
2010,08,29,05,03,9.10
2010,08,29,05,04,9.10
2010,08,29,05,05,9.10
2010,08,29,05,06,9.10
2010,08,29,05,07,9.10
2010,08,29,05,08,9.10
2010,08,29,05,09,9.00
2010,08,29,05,10,9.00
2010,08,29,05,11,9.00
2010,08,29,05,12,9.00
2010,08,29,05,13,9.00
2010,08,29,05,14,9.00
2010,08,29,05,15,9.00
2010,08,29,05,16,8.90
2010,08,29,05,17,8.90
2010,08,29,05,18,8.90
2010,08,29,05,19,8.90
2010,08,29,05,20,8.90
2010,08,29,05,21,8.90
2010,08,29,05,22,8.90
2010,08,29,05,23,8.90
2010,08,29,05,24,8.90
2010,08,29,05,25,8.90
2010,08,29,05,26,8.90
2010,08,29,05,27,8.90
2010,08,29,05,28,8.90
2010,08,29,05,29,8.80
2010,08,29,05,30,8.80
2010,08,29,05,31,8.80
2010,08,29,05,32,8.80
2010,08,29,05,33,8.80
2010,08,29,05,34,8.80
2010,08,29,05,35,8.70
2010,08,29,05,36,8.70
2010,08,29,05,37,8.70
2010,08,29,05,38,8.70
2010,08,29,05,39,8.70
2010,08,29,05,40,8.70
2010,08,29,05,41,8.70
2010,08,29,05,42,8.70
2010,08,29,05,43,8.70
2010,08,29,05,44,8.60
2010,08,29,05,45,8.60
2010,08,29,05,46,8.60
2010,08,29,05,47,8.60
2010,08,29,05,48,8.60
2010,08,29,05,49,8.60
2010,08,29,05,50,8.60
2010,08,29,05,51,8.60
2010,08,29,05,52,8.60
2010,08,29,05,53,8.60
2010,08,29,05,54,8.60
2010,08,29,05,55,8.50
2010,08,29,05,56,8.50
2010,08,29,05,57,8.50
2010,08,29,05,58,8.40
2010,08,29,05,59,8.40
2010,08,29,06,00,8.40
2010,08,29,06,01,8.40
2010,08,29,06,02,8.40
2010,08,29,06,03,8.30
2010,08,29,06,04,8.30
2010,08,29,06,05,8.30
2010,08,29,06,06,8.30
2010,08,29,06,07,8.30
2010,08,29,06,08,8.20
2010,08,29,06,09,8.20
2010,08,29,06,10,8.20
2010,08,29,06,11,8.20
2010,08,29,06,12,8.10
2010,08,29,06,13,8.10
2010,08,29,06,14,8.10
2010,08,29,06,15,8.10
2010,08,29,06,16,8.10
2010,08,29,06,17,8.10
2010,08,29,06,18,8.10
2010,08,29,06,19,8.10
2010,08,29,06,20,8.10
2010,08,29,06,21,8.10
2010,08,29,06,22,8.10
2010,08,29,06,23,8.10
2010,08,29,06,24,8.10
2010,08,29,06,25,8.10
2010,08,29,06,26,8.10
2010,08,29,06,27,8.10
2010,08,29,06,28,8.10
2010,08,29,06,29,8.10
2010,08,29,06,30,8.00
2010,08,29,06,31,8.00
2010,08,29,06,32,8.00
2010,08,29,06,33,8.00
2010,08,29,06,34,8.00
2010,08,29,06,35,8.00
2010,08,29,06,36,8.00
2010,08,29,06,37,8.00
2010,08,29,06,38,8.00
2010,08,29,06,39,8.00
2010,08,29,06,40,8.00
2010,08,29,06,41,8.00
2010,08,29,06,42,8.00
2010,08,29,06,43,8.00
2010,08,29,06,44,8.00
2010,08,29,06,45,8.00
2010,08,29,06,46,7.90
2010,08,29,06,47,7.90
2010,08,29,06,48,7.90
2010,08,29,06,49,7.90
2010,08,29,06,50,7.90
2010,08,29,06,51,7.90
2010,08,29,06,52,7.90
2010,08,29,06,53,7.90
2010,08,29,06,54,7.90
2010,08,29,06,55,7.90
2010,08,29,06,56,7.90
2010,08,29,06,57,7.90
2010,08,29,06,58,7.90
2010,08,29,06,59,7.90
2010,08,29,07,00,7.80
2010,08,29,07,01,7.80
2010,08,29,07,02,7.90
2010,08,29,07,03,7.90
2010,08,29,07,04,7.90
2010,08,29,07,05,7.90
2010,08,29,07,06,7.90
2010,08,29,07,07,7.90
2010,08,29,07,08,7.90
2010,08,29,07,09,7.90
2010,08,29,07,10,7.90
2010,08,29,07,11,7.90
2010,08,29,07,12,8.00
2010,08,29,07,13,8.00
2010,08,29,07,14,8.00
2010,08,29,07,15,8.00
2010,08,29,07,16,8.00
2010,08,29,07,17,8.00
2010,08,29,07,18,8.00
2010,08,29,07,19,8.00
2010,08,29,07,20,8.00
2010,08,29,07,21,8.00
2010,08,29,07,22,8.00
2010,08,29,07,23,8.00
2010,08,29,07,24,8.00
2010,08,29,07,25,8.10
2010,08,29,07,26,8.10
2010,08,29,07,27,8.10
2010,08,29,07,28,8.10
2010,08,29,07,29,8.10
2010,08,29,07,30,8.10
2010,08,29,07,31,8.10
2010,08,29,07,32,8.10
2010,08,29,07,33,8.20
2010,08,29,07,34,8.20
2010,08,29,07,35,8.20
2010,08,29,07,36,8.20
2010,08,29,07,37,8.20
2010,08,29,07,38,8.30
2010,08,29,07,39,8.30
2010,08,29,07,40,8.30
2010,08,29,07,41,8.30
2010,08,29,07,42,8.40
2010,08,29,07,43,8.40
2010,08,29,07,44,8.40
2010,08,29,07,45,8.50
2010,08,29,07,46,8.60
2010,08,29,07,47,8.60
2010,08,29,07,48,8.60
2010,08,29,07,49,8.70
2010,08,29,07,50,8.70
2010,08,29,07,51,8.70
2010,08,29,07,52,8.80
2010,08,29,07,53,8.80
2010,08,29,07,54,8.80
2010,08,29,07,55,8.80
2010,08,29,07,56,8.80
2010,08,29,07,57,8.90
2010,08,29,07,58,8.90
2010,08,29,07,59,8.90
2010,08,29,08,00,9.00
2010,08,29,08,01,9.10
2010,08,29,08,02,9.20
2010,08,29,08,03,9.20
2010,08,29,08,04,9.30
2010,08,29,08,05,9.30
2010,08,29,08,06,9.40
2010,08,29,08,07,9.50
2010,08,29,08,08,9.50
2010,08,29,08,09,9.60
2010,08,29,08,10,9.60
2010,08,29,08,11,9.70
2010,08,29,08,12,9.80
2010,08,29,08,13,9.90
2010,08,29,08,14,9.90
2010,08,29,08,15,10.00
2010,08,29,08,16,10.10
2010,08,29,08,17,10.20
2010,08,29,08,18,10.20
2010,08,29,08,19,10.30
2010,08,29,08,20,10.40
2010,08,29,08,21,10.40
2010,08,29,08,22,10.50
2010,08,29,08,23,10.50
2010,08,29,08,24,10.60
2010,08,29,08,25,10.60
2010,08,29,08,26,10.70
2010,08,29,08,27,10.80
2010,08,29,08,28,10.80
2010,08,29,08,29,10.80
2010,08,29,08,30,10.90
2010,08,29,08,31,10.90
2010,08,29,08,32,10.90
2010,08,29,08,33,11.00
2010,08,29,08,34,11.00
2010,08,29,08,35,11.10
2010,08,29,08,36,11.10
2010,08,29,08,37,11.10
2010,08,29,08,38,11.20
2010,08,29,08,39,11.20
2010,08,29,08,40,11.20
2010,08,29,08,41,11.30
2010,08,29,08,42,11.30
2010,08,29,08,43,11.40
2010,08,29,08,44,11.50
2010,08,29,08,45,11.50
2010,08,29,08,46,11.60
2010,08,29,08,47,11.60
2010,08,29,08,48,11.70
2010,08,29,08,49,11.80
2010,08,29,08,50,11.80
2010,08,29,08,51,11.80
2010,08,29,08,52,11.90
2010,08,29,08,53,11.90
2010,08,29,08,54,12.00
2010,08,29,08,55,12.00
2010,08,29,08,56,12.10
2010,08,29,08,57,12.10
2010,08,29,08,58,12.20
2010,08,29,08,59,12.20
2010,08,29,09,00,12.30
2010,08,29,09,01,12.40
2010,08,29,09,02,12.50
2010,08,29,09,03,12.60
2010,08,29,09,04,12.70
2010,08,29,09,05,12.80
2010,08,29,09,06,12.80
2010,08,29,09,07,12.90
2010,08,29,09,08,12.90
2010,08,29,09,09,13.00
2010,08,29,09,10,13.10
2010,08,29,09,11,13.10
2010,08,29,09,12,13.20
2010,08,29,09,13,13.30
2010,08,29,09,14,13.30
2010,08,29,09,15,13.40
2010,08,29,09,16,13.50
2010,08,29,09,17,13.50
2010,08,29,09,18,13.60
2010,08,29,09,19,13.60
2010,08,29,09,20,13.70
2010,08,29,09,21,13.80
2010,08,29,09,22,13.80
2010,08,29,09,23,13.90
2010,08,29,09,24,14.00
2010,08,29,09,25,14.00
2010,08,29,09,26,14.10
2010,08,29,09,27,14.20
2010,08,29,09,28,14.30
2010,08,29,09,29,14.30
2010,08,29,09,30,14.40
2010,08,29,09,31,14.40
2010,08,29,09,32,14.50
2010,08,29,09,33,14.50
2010,08,29,09,34,14.60
2010,08,29,09,35,14.60
2010,08,29,09,36,14.60
2010,08,29,09,37,14.70
2010,08,29,09,38,14.70
2010,08,29,09,39,14.70
2010,08,29,09,40,14.80
2010,08,29,09,41,14.90
2010,08,29,09,42,15.00
2010,08,29,09,43,15.00
2010,08,29,09,44,15.00
2010,08,29,09,45,15.00
2010,08,29,09,46,15.00
2010,08,29,09,47,15.10
2010,08,29,09,48,15.20
2010,08,29,09,49,15.30
2010,08,29,09,50,15.40
2010,08,29,09,51,15.40
2010,08,29,09,52,15.50
2010,08,29,09,53,15.60
2010,08,29,09,54,15.60
2010,08,29,09,55,15.70
2010,08,29,09,56,15.70
2010,08,29,09,57,15.70
2010,08,29,09,58,15.80
2010,08,29,09,59,15.80
2010,08,29,10,00,15.80
2010,08,29,10,01,15.80
2010,08,29,10,02,15.80
2010,08,29,10,03,15.80
2010,08,29,10,04,15.80
2010,08,29,10,05,15.80
2010,08,29,10,06,15.80
2010,08,29,10,07,15.80
2010,08,29,10,08,15.80
2010,08,29,10,09,15.80
2010,08,29,10,10,15.80
2010,08,29,10,11,15.80
2010,08,29,10,12,15.70
2010,08,29,10,13,15.80
2010,08,29,10,14,15.80
2010,08,29,10,15,15.80
2010,08,29,10,16,15.80
2010,08,29,10,17,15.80
2010,08,29,10,18,15.80
2010,08,29,10,19,15.80
2010,08,29,10,20,15.80
2010,08,29,10,21,15.80
2010,08,29,10,22,15.80
2010,08,29,10,23,15.80
2010,08,29,10,24,15.80
2010,08,29,10,25,15.80
2010,08,29,10,26,15.90
2010,08,29,10,27,15.90
2010,08,29,10,28,15.90
2010,08,29,10,29,15.80
2010,08,29,10,30,15.80
2010,08,29,10,31,15.80
2010,08,29,10,32,15.80
2010,08,29,10,33,15.80
2010,08,29,10,34,15.70
2010,08,29,10,35,15.70
2010,08,29,10,36,15.70
2010,08,29,10,37,15.70
2010,08,29,10,38,15.70
2010,08,29,10,39,15.80
2010,08,29,10,40,15.70
2010,08,29,10,41,15.70
2010,08,29,10,42,15.70
2010,08,29,10,43,15.60
2010,08,29,10,44,15.50
2010,08,29,10,45,15.50
2010,08,29,10,46,15.40
2010,08,29,10,47,15.30
2010,08,29,10,48,15.30
2010,08,29,10,49,15.20
2010,08,29,10,50,15.20
2010,08,29,10,51,15.10
2010,08,29,10,52,15.10
2010,08,29,10,53,15.10
2010,08,29,10,54,15.10
2010,08,29,10,55,15.20
2010,08,29,10,56,15.20
2010,08,29,10,57,15.10
2010,08,29,10,58,15.00
2010,08,29,10,59,15.00
2010,08,29,11,00,15.00
2010,08,29,11,01,15.00
2010,08,29,11,02,14.90
2010,08,29,11,03,14.90
2010,08,29,11,04,15.00
2010,08,29,11,05,15.00
2010,08,29,11,06,15.00
2010,08,29,11,07,15.00
2010,08,29,11,08,15.00
2010,08,29,11,09,15.00
2010,08,29,11,10,15.00
2010,08,29,11,11,15.00
2010,08,29,11,12,15.00
2010,08,29,11,13,15.00
2010,08,29,11,14,15.20
2010,08,29,11,15,15.30
2010,08,29,11,16,15.30
2010,08,29,11,17,15.30
2010,08,29,11,18,15.30
2010,08,29,11,19,15.30
2010,08,29,11,20,15.40
2010,08,29,11,21,15.40
2010,08,29,11,22,15.40
2010,08,29,11,23,15.50
2010,08,29,11,24,15.60
2010,08,29,11,25,15.60
2010,08,29,11,26,15.70
2010,08,29,11,27,15.70
2010,08,29,11,28,15.80
2010,08,29,11,29,15.80
2010,08,29,11,30,15.80
2010,08,29,11,31,15.80
2010,08,29,11,32,15.70
2010,08,29,11,33,15.70
2010,08,29,11,34,15.70
2010,08,29,11,35,15.70
2010,08,29,11,36,15.70
2010,08,29,11,37,15.70
2010,08,29,11,38,15.70
2010,08,29,11,39,15.80
2010,08,29,11,40,15.80
2010,08,29,11,41,15.90
2010,08,29,11,42,16.00
2010,08,29,11,43,16.00
2010,08,29,11,44,16.10
2010,08,29,11,45,16.10
2010,08,29,11,46,16.20
2010,08,29,11,47,16.20
2010,08,29,11,48,16.30
2010,08,29,11,49,16.40
2010,08,29,11,50,16.40
2010,08,29,11,51,16.40
2010,08,29,11,52,16.40
2010,08,29,11,53,16.50
2010,08,29,11,54,16.60
2010,08,29,11,55,16.60
2010,08,29,11,56,16.70
2010,08,29,11,57,16.70
2010,08,29,11,58,16.70
2010,08,29,11,59,16.80
2010,08,29,12,00,16.80
2010,08,29,12,01,16.90
2010,08,29,12,02,16.90
2010,08,29,12,03,17.00
2010,08,29,12,04,17.10
2010,08,29,12,05,17.20
2010,08,29,12,06,17.20
2010,08,29,12,07,17.20
2010,08,29,12,08,17.20
2010,08,29,12,09,17.20
2010,08,29,12,10,17.10
2010,08,29,12,11,17.10
2010,08,29,12,12,17.10
2010,08,29,12,13,17.10
2010,08,29,12,14,17.10
2010,08,29,12,15,17.10
2010,08,29,12,16,17.10
2010,08,29,12,17,17.20
2010,08,29,12,18,17.20
2010,08,29,12,19,17.30
2010,08,29,12,20,17.30
2010,08,29,12,21,17.50
2010,08,29,12,22,17.60
2010,08,29,12,23,17.70
2010,08,29,12,24,17.80
2010,08,29,12,25,17.80
2010,08,29,12,26,17.90
2010,08,29,12,27,18.00
2010,08,29,12,28,18.00
2010,08,29,12,29,18.00
2010,08,29,12,30,18.00
2010,08,29,12,31,18.10
2010,08,29,12,32,18.10
2010,08,29,12,33,18.20
2010,08,29,12,34,18.30
2010,08,29,12,35,18.50
2010,08,29,12,36,18.60
2010,08,29,12,37,18.70
2010,08,29,12,38,18.70
2010,08,29,12,39,18.70
2010,08,29,12,40,18.70
2010,08,29,12,41,18.50
2010,08,29,12,42,18.30
2010,08,29,12,43,18.20
2010,08,29,12,44,18.20
2010,08,29,12,45,18.20
2010,08,29,12,46,18.10
2010,08,29,12,47,18.10
2010,08,29,12,48,18.10
2010,08,29,12,49,18.10
2010,08,29,12,50,18.10
2010,08,29,12,51,18.20
2010,08,29,12,52,18.20
2010,08,29,12,53,18.20
2010,08,29,12,54,18.10
2010,08,29,12,55,18.00
2010,08,29,12,56,18.00
2010,08,29,12,57,18.10
2010,08,29,12,58,18.10
2010,08,29,12,59,18.10
2010,08,29,13,00,18.20
2010,08,29,13,01,18.20
2010,08,29,13,02,18.30
2010,08,29,13,03,18.40
2010,08,29,13,04,18.50
2010,08,29,13,05,18.60
2010,08,29,13,06,18.70
2010,08,29,13,07,18.90
2010,08,29,13,08,19.00
2010,08,29,13,09,19.10
2010,08,29,13,10,19.20
2010,08,29,13,11,19.10
2010,08,29,13,12,19.10
2010,08,29,13,13,19.20
2010,08,29,13,14,19.30
2010,08,29,13,15,19.30
2010,08,29,13,16,19.40
2010,08,29,13,17,19.40
2010,08,29,13,18,19.40
2010,08,29,13,19,19.50
2010,08,29,13,20,19.50
2010,08,29,13,21,19.50
2010,08,29,13,22,19.40
2010,08,29,13,23,19.30
2010,08,29,13,24,19.30
2010,08,29,13,25,19.40
2010,08,29,13,26,19.40
2010,08,29,13,27,19.30
2010,08,29,13,28,19.30
2010,08,29,13,29,19.20
2010,08,29,13,30,19.00
2010,08,29,13,31,19.00
2010,08,29,13,32,18.90
2010,08,29,13,33,19.00
2010,08,29,13,34,19.10
2010,08,29,13,35,19.20
2010,08,29,13,36,19.20
2010,08,29,13,37,19.20
2010,08,29,13,38,19.20
2010,08,29,13,39,19.20
2010,08,29,13,40,19.20
2010,08,29,13,41,19.30
2010,08,29,13,42,19.20
2010,08,29,13,43,19.20
2010,08,29,13,44,19.20
2010,08,29,13,45,19.30
2010,08,29,13,46,19.20
2010,08,29,13,47,19.20
2010,08,29,13,48,19.10
2010,08,29,13,49,19.00
2010,08,29,13,50,18.90
2010,08,29,13,51,18.90
2010,08,29,13,52,18.90
2010,08,29,13,53,18.80
2010,08,29,13,54,18.80
2010,08,29,13,55,18.90
2010,08,29,13,56,18.90
2010,08,29,13,57,19.00
2010,08,29,13,58,19.20
2010,08,29,13,59,19.20
2010,08,29,14,00,19.30
2010,08,29,14,01,19.40
2010,08,29,14,02,19.40
2010,08,29,14,03,19.40
2010,08,29,14,04,19.50
2010,08,29,14,05,19.50
2010,08,29,14,06,19.60
2010,08,29,14,07,19.60
2010,08,29,14,08,19.60
2010,08,29,14,09,19.60
2010,08,29,14,10,19.60
2010,08,29,14,11,19.50
2010,08,29,14,12,19.50
2010,08,29,14,13,19.50
2010,08,29,14,14,19.50
2010,08,29,14,15,19.60
2010,08,29,14,16,19.70
2010,08,29,14,17,19.80
2010,08,29,14,18,19.90
2010,08,29,14,19,20.00
2010,08,29,14,20,20.00
2010,08,29,14,21,19.90
2010,08,29,14,22,19.80
2010,08,29,14,23,19.80
2010,08,29,14,24,19.70
2010,08,29,14,25,19.70
2010,08,29,14,26,19.70
2010,08,29,14,27,19.70
2010,08,29,14,28,19.80
2010,08,29,14,29,19.80
2010,08,29,14,30,19.90
2010,08,29,14,31,19.90
2010,08,29,14,32,19.80
2010,08,29,14,33,19.70
2010,08,29,14,34,19.60
2010,08,29,14,35,19.50
2010,08,29,14,36,19.40
2010,08,29,14,37,19.30
2010,08,29,14,38,19.30
2010,08,29,14,39,19.30
2010,08,29,14,40,19.30
2010,08,29,14,41,19.30
2010,08,29,14,42,19.30
2010,08,29,14,43,19.30
2010,08,29,14,44,19.20
2010,08,29,14,45,19.20
2010,08,29,14,46,19.10
2010,08,29,14,47,19.00
2010,08,29,14,48,19.00
2010,08,29,14,49,19.00
2010,08,29,14,50,18.90
2010,08,29,14,51,18.90
2010,08,29,14,52,18.90
2010,08,29,14,53,18.90
2010,08,29,14,54,18.80
2010,08,29,14,55,18.80
2010,08,29,14,56,18.90
2010,08,29,14,57,18.80
2010,08,29,14,58,18.90
2010,08,29,14,59,18.90
2010,08,29,15,00,18.90
2010,08,29,15,01,18.90
2010,08,29,15,02,18.90
2010,08,29,15,03,19.00
2010,08,29,15,04,19.00
2010,08,29,15,05,19.00
2010,08,29,15,06,19.00
2010,08,29,15,07,18.90
2010,08,29,15,08,18.90
2010,08,29,15,09,18.90
2010,08,29,15,10,18.90
2010,08,29,15,11,18.90
2010,08,29,15,12,18.80
2010,08,29,15,13,18.80
2010,08,29,15,14,18.80
2010,08,29,15,15,18.80
2010,08,29,15,16,18.80
2010,08,29,15,17,18.80
2010,08,29,15,18,18.80
2010,08,29,15,19,18.80
2010,08,29,15,20,18.80
2010,08,29,15,21,18.80
2010,08,29,15,22,18.70
2010,08,29,15,23,18.70
2010,08,29,15,24,18.70
2010,08,29,15,25,18.70
2010,08,29,15,26,18.60
2010,08,29,15,27,18.60
2010,08,29,15,28,18.60
2010,08,29,15,29,18.60
2010,08,29,15,30,18.70
2010,08,29,15,31,18.70
2010,08,29,15,32,18.70
2010,08,29,15,33,18.60
2010,08,29,15,34,18.60
2010,08,29,15,35,18.50
2010,08,29,15,36,18.40
2010,08,29,15,37,18.40
2010,08,29,15,38,18.50
2010,08,29,15,39,18.50
2010,08,29,15,40,18.60
2010,08,29,15,41,18.60
2010,08,29,15,42,18.70
2010,08,29,15,43,18.70
2010,08,29,15,44,18.70
2010,08,29,15,45,18.70
2010,08,29,15,46,18.80
2010,08,29,15,47,18.80
2010,08,29,15,48,18.90
2010,08,29,15,49,19.00
2010,08,29,15,50,19.10
2010,08,29,15,51,19.10
2010,08,29,15,52,19.10
2010,08,29,15,53,19.10
2010,08,29,15,54,19.20
2010,08,29,15,55,19.20
2010,08,29,15,56,19.30
2010,08,29,15,57,19.40
2010,08,29,15,58,19.40
2010,08,29,15,59,19.40
2010,08,29,16,00,19.40
2010,08,29,16,01,19.40
2010,08,29,16,02,19.40
2010,08,29,16,03,19.40
2010,08,29,16,04,19.30
2010,08,29,16,05,19.30
2010,08,29,16,06,19.20
2010,08,29,16,07,19.20
2010,08,29,16,08,19.20
2010,08,29,16,09,19.10
2010,08,29,16,10,19.00
2010,08,29,16,11,18.90
2010,08,29,16,12,18.90
2010,08,29,16,13,18.90
2010,08,29,16,14,18.90
2010,08,29,16,15,18.90
2010,08,29,16,16,18.90
2010,08,29,16,17,18.90
2010,08,29,16,18,18.90
2010,08,29,16,19,18.90
2010,08,29,16,20,19.00
2010,08,29,16,21,19.10
2010,08,29,16,22,19.10
2010,08,29,16,23,19.20
2010,08,29,16,24,19.20
2010,08,29,16,25,19.20
2010,08,29,16,26,19.20
2010,08,29,16,27,19.20
2010,08,29,16,28,19.30
2010,08,29,16,29,19.30
2010,08,29,16,30,19.30
2010,08,29,16,31,19.20
2010,08,29,16,32,19.20
2010,08,29,16,33,19.10
2010,08,29,16,34,19.10
2010,08,29,16,35,19.10
2010,08,29,16,36,19.10
2010,08,29,16,37,19.20
2010,08,29,16,38,19.20
2010,08,29,16,39,19.20
2010,08,29,16,40,19.30
2010,08,29,16,41,19.30
2010,08,29,16,42,19.40
2010,08,29,16,43,19.40
2010,08,29,16,44,19.40
2010,08,29,16,45,19.30
2010,08,29,16,46,19.30
2010,08,29,16,47,19.30
2010,08,29,16,48,19.20
2010,08,29,16,49,19.20
2010,08,29,16,50,19.20
2010,08,29,16,51,19.30
2010,08,29,16,52,19.40
2010,08,29,16,53,19.40
2010,08,29,16,54,19.40
2010,08,29,16,55,19.50
2010,08,29,16,56,19.50
2010,08,29,16,57,19.50
2010,08,29,16,58,19.60
2010,08,29,16,59,19.60
2010,08,29,17,00,19.60
2010,08,29,17,01,19.50
2010,08,29,17,02,19.40
2010,08,29,17,03,19.20
2010,08,29,17,04,19.00
2010,08,29,17,05,18.80
2010,08,29,17,06,18.70
2010,08,29,17,07,18.70
2010,08,29,17,08,18.60
2010,08,29,17,09,18.60
2010,08,29,17,10,18.60
2010,08,29,17,11,18.60
2010,08,29,17,12,18.60
2010,08,29,17,13,18.60
2010,08,29,17,14,18.60
2010,08,29,17,15,18.60
2010,08,29,17,16,18.60
2010,08,29,17,17,18.60
2010,08,29,17,18,18.50
2010,08,29,17,19,18.50
2010,08,29,17,20,18.40
2010,08,29,17,21,18.30
2010,08,29,17,22,18.20
2010,08,29,17,23,18.20
2010,08,29,17,24,18.20
2010,08,29,17,25,18.10
2010,08,29,17,26,18.10
2010,08,29,17,27,18.00
2010,08,29,17,28,18.00
2010,08,29,17,29,17.90
2010,08,29,17,30,17.90
2010,08,29,17,31,17.90
2010,08,29,17,32,17.90
2010,08,29,17,33,17.90